Lexington Weather

Lexington, Massachusetts, USA

47°F
10/22/2019 2:25am 
  • Lexington Conditions: Mostly cloudy
  • Temperature: 46.6°F / 8.1°CWarmer 1.3°F than last hour.
  • Dew Point: 45.0°FIncreased 1.8°Fsince last hour.
  • Relative Humidity: 94%Increased 2.0% since last hour.
  • Wind: Calm, 10-min avg: Calm, gust: None
  • Barometer: 30.12 in Steady
  • Visibility: 9 miles
  • Rain Today: 0.00 in
  •   

Regional Weather Roundup
for Boston, MA

        
000
ASUS41 KBOX 202100
RWRBOX

REGIONAL WEATHER ROUNDUP
NATIONAL WEATHER SERVICE BOSTON/NORTON MA
500 PM EDT SUN OCT 20 2019

NOTE:  "FAIR" INDICATES FEW OR NO CLOUDS BELOW 12,000 FEET WITH NO 
SIGNIFICANT WEATHER AND/OR OBSTRUCTIONS TO VISIBILITY.

MAZALL-202200-
EASTERN MASSACHUSETTS
  
CITY           SKY/WX    TMP DP  RH WIND       PRES   REMARKS
BOSTON         CLOUDY    57  46  66 E6        30.07S                  
BEVERLY        FAIR      56  46  69 E6        30.06S                  
LAWRENCE       FAIR      56  47  71 E6        30.08S                  
BEDFORD        CLOUDY    61  40  45 CALM      30.05F                  
BLUE HILL      NOT AVBL                                               
NORWOOD        FAIR      60  46  59 NE6       30.06S                  
MARSHFIELD     NOT AVBL                                               
PLYMOUTH       FAIR      57  48  72 S5        30.06S                  
TAUNTON        FAIR      60  46  59 CALM      30.05F                  
NEW BEDFORD    FAIR      58  47  66 CALM      30.05S                  
$$

MAZALL-202200-
CAPE COD AND THE ISLANDS
  
CITY           SKY/WX    TMP DP  RH WIND       PRES   REMARKS
FALMOUTH       CLEAR     55  45  67 SE5       30.07S                  
HYANNIS        NOT AVBL                                               
CHATHAM        NOT AVBL                                               
PROVINCETOWN   FAIR      57  48  72 S6          N/A                   
NANTUCKET      FAIR      56  49  77 E7        30.07S                  
MARTHAS VNYRD  FAIR      57  49  74 E5        30.06S                  
$$
 
MAZALL-202200-
CENTRAL AND WESTERN MASSACHUSETTS
  
CITY           SKY/WX    TMP DP  RH WIND       PRES   REMARKS
WORCESTER      FAIR      55  41  59 S5        30.05F                  
FITCHBURG      FAIR      58  40  51 E5        30.06S                  
ORANGE         CLOUDY    57  44  62 CALM      30.06F                  
SPRINGFIELD    NOT AVBL                                               
WESTFIELD      LGT RAIN  53  49  86 N3        30.04F                  
NORTH ADAMS    LGT RAIN  52  48  86 E6        30.03F                  
PITTSFIELD     LGT RAIN  51  47  86 E3        30.02F                  
$$
 
RIZALL-202200-
RHODE ISLAND
  
CITY           SKY/WX    TMP DP  RH WIND       PRES   REMARKS
PROVIDENCE     CLOUDY    58  48  69 SE5       30.05F                  
NEWPORT        FAIR      58  46  64 E3        30.05F                  
BLOCK ISLAND   FAIR      56  50  80 E6        30.05F                  
SMITHFIELD     FAIR     N/A N/A N/A E5        30.05F                  
WESTERLY       FAIR      60  50  69 E5        30.04F                  
$$
 
CTZALL-202200-
CONNECTICUT
  
CITY           SKY/WX    TMP DP  RH WIND       PRES   REMARKS
BRADLEY INTL   LGT RAIN  55  48  77 N5        30.04F                  
HARTFORD       LGT RAIN  56  47  71 CALM      30.04S                  
BRIDGEPORT     RAIN      58  52  80 E9        30.02F                  
DANBURY        LGT RAIN  53  51  93 CALM      30.03F FOG              
GROTON         NOT AVBL                                               
NEW HAVEN      LGT RAIN  59  51  75 E5        30.03F                  
CHESTER        LGT RAIN  55  50  82 CALM      30.04S                  
MERIDEN        LGT RAIN  53  50  89 NW3       30.04S                  
WILLIMANTIC    CLOUDY    58  45  62 E3        30.04F                  
OXFORD         LGT RAIN  53  50  89 E3        30.04S                  
$$

MEZ002-015-021-024-NHZ003-005-008-011-012-014-VTZ005-008-202200-
NORTHERN NEW ENGLAND
  
CITY           SKY/WX    TMP DP  RH WIND       PRES   REMARKS
PORTLAND ME    MOCLDY    52  44  74 SE7       30.09S                  
BANGOR ME      MOCLDY    54  39  57 S7        30.08S                  
CONCORD NH     FAIR      56  42  59 CALM      30.05F                  
MANCHESTER NH  CLOUDY    58  40  51 S5        30.05S                  
NASHUA NH      MOCLDY    56  46  69 CALM      30.06F                  
PORTSMOUTH NH  MOCLDY    54  46  75 SE7       30.06S                  
JAFFREY NH     MOCLDY    55  39  54 CALM      30.05F                  
KEENE NH       LGT RAIN  54  45  71 CALM      30.05S                  
BURLINGTON VT  MOCLDY    55  40  56 S10       29.99S                  
MT. WASHINGTON CLOUDY    34   9  35 SW23        N/A  WCI  22          
$$

NYZ052-076-202200-
EASTERN NEW YORK
  
CITY           SKY/WX    TMP DP  RH WIND       PRES   REMARKS
ALBANY         LGT RAIN  51  46  83 S6        30.03F                  
NEW YORK CITY  LGT RAIN  58  53  84 E9        29.99F                  
$$
 
ANZALL-202200-
MARINE OBSERVATIONS
  
STATION/POSITION TIME  TEMP    WIND        PRES    VSBY  WAVE
                       AIR SEA DIR/SP/G                  HT/PER
                 (UTC) (F)     (DEG/KT/KT) (MB)    (MI)  (FT/S)
BOSTON BUOY      1950   56 57   90/  4/  4 1017.4          1/13
BUZZARDS BAY     2000   57     120/  3/  4 1018.5S
NANTUCKET SOUND  NOT AVBL
MASS BAY-STELLWA 2004   55 56  110/  4/  4 1017.6F  1 7/8  1/ 4
ISLE OF SHOALS   2000   54      90/  2/  2 1018.0F
S OF BLOCK IS    2030      60                N/A           1/13
$$

......................KEY.........................
  SKY/WX - SKY CONDITION/PRESENT WEATHER
  TMP    - TEMPERATURE IN FAHRENHEIT
  DWPT   - DEWPOINT IN FAHRENHEIT
  RH     - RELATIVE HUMIDITY IN PERCENT
  WIND   - DIRECTION AND SPEED IN MPH
  PRES   - MEAN SEA LEVEL PRESSURE IN INCHES OF HG
  WCI    - WIND CHILL INDEX
  VSB    - VISIBILITY IN MILES
  HX     - HEAT INDEX
  TC     - TEMPERATURE IN CELSIUS
  VRB    - VARIABLE WIND DIRECTION
  N/A    - NOT AVAILABLE
  
      

Other recent Regional Weather Roundups

Tue Oct 22, 2:10am

Tue Oct 22, 2:00am

Tue Oct 22, 1:10am

Tue Oct 22, 1:00am

Tue Oct 22, 12:10am

Tue Oct 22, 12:00am

Mon Oct 21, 11:10pm

Mon Oct 21, 11:00pm

Mon Oct 21, 10:10pm

Mon Oct 21, 10:01pm

Mon Oct 21, 9:10pm

Mon Oct 21, 9:00pm

Mon Oct 21, 8:10pm

Mon Oct 21, 8:00pm

Mon Oct 21, 7:10pm

Mon Oct 21, 7:01pm

Mon Oct 21, 6:10pm

Mon Oct 21, 6:01pm

Mon Oct 21, 5:10pm

Mon Oct 21, 5:01pm

Mon Oct 21, 4:10pm

Mon Oct 21, 4:00pm

Mon Oct 21, 3:10pm

Mon Oct 21, 3:01pm

Mon Oct 21, 2:10pm

Mon Oct 21, 2:00pm

Mon Oct 21, 1:10pm

Mon Oct 21, 1:01pm

Mon Oct 21, 12:10pm

Mon Oct 21, 12:00pm

Mon Oct 21, 11:10am

Mon Oct 21, 11:00am

Mon Oct 21, 10:10am

Mon Oct 21, 10:00am

Mon Oct 21, 9:10am

Mon Oct 21, 9:00am

Mon Oct 21, 7:10am

Mon Oct 21, 7:00am

Mon Oct 21, 6:10am

Mon Oct 21, 6:00am

Mon Oct 21, 5:10am

Mon Oct 21, 5:00am

Mon Oct 21, 4:10am

Mon Oct 21, 4:00am

Mon Oct 21, 3:10am

Mon Oct 21, 3:00am

Mon Oct 21, 2:10am

Mon Oct 21, 2:01am

Mon Oct 21, 1:10am

Mon Oct 21, 1:00am

Mon Oct 21, 12:10am

Mon Oct 21, 12:00am

Sun Oct 20, 11:10pm

Sun Oct 20, 11:00pm

Sun Oct 20, 10:10pm

Sun Oct 20, 10:00pm

Sun Oct 20, 9:10pm

Sun Oct 20, 9:01pm

Sun Oct 20, 8:10pm

Sun Oct 20, 8:00pm

Sun Oct 20, 7:10pm

Sun Oct 20, 7:01pm

Sun Oct 20, 6:10pm

Sun Oct 20, 6:00pm

Sun Oct 20, 5:10pm

Sun Oct 20, 4:10pm

Sun Oct 20, 4:00pm

Sun Oct 20, 3:10pm

Sun Oct 20, 3:00pm

Sun Oct 20, 2:10pm

Sun Oct 20, 2:01pm

Sun Oct 20, 1:10pm

Sun Oct 20, 1:01pm

Sun Oct 20, 12:10pm

Sun Oct 20, 12:00pm

Sun Oct 20, 11:10am

Sun Oct 20, 11:00am

Sun Oct 20, 10:10am

Sun Oct 20, 10:00am

Sun Oct 20, 9:10am

Sun Oct 20, 9:00am

Sun Oct 20, 8:10am

Sun Oct 20, 8:00am

Sun Oct 20, 7:10am

Sun Oct 20, 7:00am

Sun Oct 20, 6:10am

Sun Oct 20, 6:00am

Sun Oct 20, 5:10am

Sun Oct 20, 5:00am

Sun Oct 20, 4:10am

Sun Oct 20, 4:00am

Sun Oct 20, 3:10am

Sun Oct 20, 3:00am

Sun Oct 20, 2:10am

Sun Oct 20, 2:00am

Sun Oct 20, 1:10am

Sun Oct 20, 1:00am

Sun Oct 20, 12:10am

Sun Oct 20, 12:00am

Sat Oct 19, 11:10pm

Sat Oct 19, 11:00pm

Sat Oct 19, 10:10pm

Sat Oct 19, 10:00pm

Sat Oct 19, 9:10pm

Sat Oct 19, 9:00pm

Sat Oct 19, 8:10pm

Sat Oct 19, 8:00pm

Sat Oct 19, 7:10pm

Sat Oct 19, 7:00pm

Sat Oct 19, 6:10pm

Sat Oct 19, 6:00pm

Sat Oct 19, 5:10pm

Sat Oct 19, 5:00pm

Sat Oct 19, 4:10pm

Sat Oct 19, 4:00pm

Sat Oct 19, 3:10pm

Sat Oct 19, 3:01pm

Sat Oct 19, 2:10pm

Sat Oct 19, 2:00pm

Sat Oct 19, 1:10pm

Sat Oct 19, 1:01pm

Sat Oct 19, 12:10pm

Sat Oct 19, 12:00pm

Sat Oct 19, 11:10am

Sat Oct 19, 11:01am

Sat Oct 19, 10:10am

Sat Oct 19, 10:00am

Sat Oct 19, 9:10am

Sat Oct 19, 9:00am

Sat Oct 19, 8:10am

Sat Oct 19, 8:00am

Sat Oct 19, 7:10am

Sat Oct 19, 7:00am

Sat Oct 19, 6:10am

Sat Oct 19, 6:00am

Sat Oct 19, 5:10am

Sat Oct 19, 5:00am

Sat Oct 19, 4:10am

Sat Oct 19, 4:00am

Sat Oct 19, 3:10am

Sat Oct 19, 3:00am

Meta data:

ID: 6f1bb5d1-efbd-4b51-bd32-67b0a9ea33ec
Link: https://api.weather.gov/products/6f1bb5d1-efbd-4b51-bd32-67b0a9ea33ec